Regional Weather Roundup
Issued by NWS

Home | Current Version | Previous Version | Graphics & Text | Print | Product List | Glossary On
Versions: 1 2 3 4 5 6 7 8 9 10 11 12 13 14 15 16 17 18 19 20 21 22 23 24 25 26 27 28 29 30 31 32 33 34 35 36 37 38 39 40 41 42 43 44 45 46 47 48 49 50
000
ASUS43 KLOT 190409
RWRIL

ILLINOIS REGIONAL WEATHER ROUNDUP
NATIONAL WEATHER SERVICE CHICAGO/ROMEOVILLE IL
1100 PM CDT FRI AUG 18 2017

NOTE: "FAIR" INDICATES FEW OR NO CLOUDS BELOW 12,000 FEET WITH NO
SIGNIFICANT WEATHER AND/OR OBSTRUCTIONS TO VISIBILITY.

* THESE STATIONS ARE NOT UNDER NWS QUALITY CONTROL. THEY ALSO MAY NOT
  REPORT WEATHER SUCH AS PRECIPITATION OR FOG.

ILZ001-002-007-009-015-016-024-190500-
NORTHWEST ILLINOIS

CITY           SKY/WX    TMP DP  RH WIND       PRES   REMARKS
MOLINE         FAIR      72  60  66 N3        29.91R
STERLING*      CLOUDY    70  63  78 N5        29.92R
SAVANNA*       FAIR      65  61  89 N3        29.91S
$$

ILZ003-004-008-010-011-017-018-190500-
NORTH CENTRAL ILLINOIS

CITY           SKY/WX    TMP DP  RH WIND       PRES   REMARKS
ROCKFORD       MOCLDY    65  60  84 N5        29.92R
FREEPORT*      FAIR      60  58  95 NW3       29.93S
ROCHELLE*      CLOUDY    67  63  87 N5        29.92R
DE KALB*       MOCLDY    68  61  78 N3        29.92S
PERU*          MOCLDY    70  63  76 N5        29.91R
$$

ILZ005-006-012>014-019>023-190500-
NORTHEAST ILLINOIS

CITY           SKY/WX    TMP DP  RH WIND       PRES   REMARKS
CHICAGO-OHARE  MOCLDY    73  60  63 NW8       29.89R
CHICAGO-MIDWAY MOCLDY    75  61  61 NW6       29.87F
AURORA         CLOUDY    68  65  90 NW6       29.90S
LANSING*       FAIR      67  60  77 CALM      29.88F
JOLIET*        FAIR      74  64  71 CALM      29.89S
WAUKEGAN       FAIR      67  61  81 W3        29.89R
DUPAGE AIRPORT CLOUDY    71  62  73 NW8       29.89R
KANKAKEE*      MOCLDY    70  64  83 CALM      29.90S
WHEELING       MOCLDY    71  63  75 NW9       29.91R
MORRIS*        MOCLDY    71  64  78 CALM      29.88S
ROMEOVILLE*    MOCLDY    69  62  78 NW6       29.89S
NORTHERLY ISL    N/A     76  60  57 W5          N/A
$$

LMZ740>746-190500-
SOUTHERN LAKE MICHIGAN

STATION/POSITION SKY/WX   TEMP    WIND        PRES    VSBY  WAVE
                          AIR SEA DIR/SP/G                  HT/PER
                          (F)     (DEG/KT/KT) (MB)    (MI)  (FT/S)
SOUTHERN BUOY              72 71  260/  8/  8 1011.2R         1/ 4
WILMETTE HARBOR            73 73  310/  8/ 14   N/A           1/ 2
HARRISON CRIB              76     310/ 11/ 11   N/A
CALUMET HARBOR             75     280/  4/  5 1011.1F
BURNS HARBOR               75     240/  5/  7 1012.2F
MICHIGAN CITY              71     130/  4/  5   N/A
MICHIGAN CITY 6N           72 74  150/  4/  6   N/A           1/ 5
ST. JOSEPH                 73 74  190/  4/  6 1011.4          2/ 5
$$

ILZ025>027-034>036-040-047-049-050-058-095>099-190500-
WEST-CENTRAL ILLINOIS

CITY           SKY/WX    TMP DP  RH WIND       PRES   REMARKS
QUINCY         FAIR      73  64  73 SW6       29.91R
GALESBURG*     FAIR      65  65  99 N5        29.92R
MACOMB*        FAIR      67  66  96 S3        29.92S
JACKSONVILLE*  FAIR      72  65  80 CALM      29.90F
PITTSFIELD*    FAIR      74  66  74 W3        29.92R
$$

ILZ028>032-037-038-041>044-048-051>054-059>061-190500-
CENTRAL ILLINOIS

CITY           SKY/WX    TMP DP  RH WIND       PRES   REMARKS
PONTIAC        LGT RAIN  70  69  98 CALM      29.90S
BLOOMINGTON    FAIR      65  62  90 S5        29.91S
DECATUR        LGT RAIN  76  65  68 W8        29.93R
PEORIA         FAIR      69  65  86 SW3       29.90F
LACON*         MOCLDY    72  70  92 CALM      29.90R
LINCOLN*       FAIR      72  70  92 S6        29.91F
SPRINGFIELD    MOCLDY    75  69  81 SW3       29.92S
TAYLORVILLE    MOCLDY    70  67  90 S3        29.92F
$$

ILZ033-039-045-046-055>057-062-063-190500-
EAST-CENTRAL ILLINOIS

CITY           SKY/WX    TMP DP  RH WIND       PRES   REMARKS
CHAMPAIGN      MOCLDY    70  66  87 W6        29.95R
RANTOUL*       CLOUDY    75  65  70 W28G41    29.96R THUNDER
MATTOON        FAIR      74  67  78 SW6       29.93R
PARIS*         FAIR      67  65  92 SW5       29.94S
$$

ILZ079-100>102-190500-
SOUTHWEST ILLINOIS

CITY           SKY/WX    TMP DP  RH WIND       PRES   REMARKS
ALTON          FAIR      73  66  78 SW7       29.93S
BELLEVILLE     MOCLDY    71  68  92 CALM      29.95F
CAHOKIA*       MOCLDY    74  67  78 S3        29.94S
SPARTA*        FAIR      75  69  80 CALM      29.97S
$$

ILZ064>066-069>071-074>076-080>082-084>086-088>090-092>094-190500-
SOUTH-CENTRAL ILLINOIS

CITY           SKY/WX    TMP DP  RH WIND       PRES   REMARKS
CARBONDALE     MOCLDY    74  71  91 W3        29.96R
CAIRO*         FAIR      74  70  87 CALM      29.96F
EFFINGHAM*     FAIR      75  67  75 S7        29.96S
MARION         CLOUDY    75  72  88 S5        29.97S
MT. VERNON       N/A     71  69  93 CALM      29.96R
CENTRALIA*     FAIR      76  67  75 S6        29.95S
SALEM*         FAIR      75  67  76 S5        29.95S
METROPOLIS*    FAIR      75  69  79 CALM      29.97F
$$

ILZ067-068-072-073-078-083-087-091-190500-
SOUTHEAST ILLINOIS

CITY           SKY/WX    TMP DP  RH WIND       PRES   REMARKS
LAWRENCEVILLE  FAIR      74  66  76 SW7       29.95S
FLORA*         FAIR      74  69  85 S5        29.95S
FAIRFIELD*     FAIR      73  69  89 CALM      29.94S
HARRISBURG*    FAIR      73  68  86 CALM      29.96S
ROBINSON*      FAIR      73  65  76 W7        29.95R
CARMI*         FAIR      72  68  88 SW6       29.95R
$$

ABBREVIATIONS USED IN REMARKS
   TC - TEMPERATURE IN CELSIUS
  WCI - WIND CHILL INDEX
   HX - HEAT INDEX
  VSB - VISIBILITY
$$





USA.gov is the U.S. government's official web portal to all federal, state and local government web resources and services.